Regional & State Weather Roundups


247 
ASUS43 KDTX 230601
RWRMI 
MICHIGAN HOURLY REGIONAL WEATHER ROUNDUP
NATIONAL WEATHER SERVICE DETROIT/PONTIAC MI
200 AM EDT MON OCT 23 2017
NOTE: "FAIR" INDICATES FEW OR NO CLOUDS BELOW 12,000 FEET WITH NO
SIGNIFICANT WEATHER AND/OR OBSTRUCTION TO VISIBILITY.
MIZ047>049-052>055-059>063-066>070-074>076-081>083-230700-
SOUTHEAST LOWER MICHIGAN
  
CITY           SKY/WX    TMP DP  RH WIND       PRES   REMARKS
ADRIAN         MOCLDY    61  49  64 S6        29.99F                  
6HR MIN TEMP:  61; 6HR MAX TEMP:  71;                                
ALMA           CLOUDY    62  59  90 NW6       29.96S                  
ANN ARBOR      CLOUDY    63  48  58 S3        29.99F                  
BAD AXE        PTCLDY    66  48  53 S14       29.97S                  
CARO           MOCLDY    66  49  54 S7        29.96F                  
DETROIT CITY   CLOUDY    63  51  65 S7        30.00F                  
6HR MIN TEMP:  63; 6HR MAX TEMP:  71;                                
DETROIT        CLOUDY    64  52  64 SE8       30.01F                  
6HR MIN TEMP:  62; 6HR MAX TEMP:  70;                                
FLINT          CLOUDY    66  49  54 S8        29.97F                  
6HR MIN TEMP:  66; 6HR MAX TEMP:  71;                                
GROSSE ILE     CLOUDY    63  55  75 S9        30.00F                  
6HR MIN TEMP:  61; 6HR MAX TEMP:  68;                                
HILLSDALE      CLOUDY    63  48  59 S7        29.98F                  
HOWELL         CLOUDY    64  50  60 S7        29.98F                  
6HR MIN TEMP:  64; 6HR MAX TEMP:  70;                                
CITY           SKY/WX    TMP DP  RH WIND       PRES   REMARKS
JACKSON        CLOUDY    67  50  54 S12       29.97F                  
6HR MIN TEMP:  66; 6HR MAX TEMP:  71;                                
LAMBERTVILLE   MOCLDY    65  48  54 S3        29.99F                  
6HR MIN TEMP:  65; 6HR MAX TEMP:  73;                                
LANSING        CLOUDY    68  52  56 S10       29.96F                  
6HR MIN TEMP:  68; 6HR MAX TEMP:  72;                                
LAPEER         FAIR      65  48  55 S8        29.99F                  
6HR MIN TEMP:  65; 6HR MAX TEMP:  69;                                
MASON          CLOUDY    67  52  58 CALM      29.97F                  
MONROE         CLOUDY    64  50  61 SE5       29.99F                  
6HR MIN TEMP:  63; 6HR MAX TEMP:  72;                                
MT. CLEMENS    CLOUDY    58  57  96 S5        29.99F                  
6HR MIN TEMP:  58; 6HR MAX TEMP:  66;                                
PONTIAC        PTCLDY    64  49  57 S6        29.98F                  
6HR MIN TEMP:  64; 6HR MAX TEMP:  69;                                
PORT HOPE        N/A     68  50  52 VRB7      29.94F                  
6HR MIN TEMP:  68; 6HR MAX TEMP:  71;                                
PORT HURON     CLOUDY    64  52  63 S7        30.01F                  
TRI CITIES     CLOUDY    65  62  90 SW6       29.95F                  
6HR MIN TEMP:  64; 6HR MAX TEMP:  74;                                
MIDLAND        CLOUDY    63  59  87 NW5       29.94F                  
6HR MIN TEMP:  63; 6HR MAX TEMP:  73;                                
TROY           CLOUDY    65  51  60 S5        30.01F                  
SAGINAW HB     CLOUDY    68  52  56 S10       29.94F                  
$$
MIZ043>046-050>051-056>058-064>065-071>073-077>080-230700-
SOUTHWEST LOWER MICHIGAN
  
CITY           SKY/WX    TMP DP  RH WIND       PRES   REMARKS
BATTLE CREEK   CLOUDY    66  57  72 S7        29.96F                  
6HR MIN TEMP:  65; 6HR MAX TEMP:  73;                                
BENTON HARBOR  LGT RAIN  57  54  89 VRB5      29.96F                  
6HR MIN TEMP:  57; 6HR MAX TEMP:  58; 6HR PCP: TRACE;                
BIG RAPIDS     LGT RAIN  51  50  95 CALM      29.97S                  
6HR MIN TEMP:  51; 6HR MAX TEMP:  55; 6HR PCP:  0.27;                
COLDWATER      CLOUDY    66  50  55 S5        29.96F                  
6HR MIN TEMP:  66; 6HR MAX TEMP:  71;                                
FREMONT        RAIN      52  52 100 N5        29.97F                  
6HR MIN TEMP:  52; 6HR MAX TEMP:  52;                                
HOLLAND        CLOUDY    54  52  93 CALM      29.98F                  
6HR MIN TEMP:  54; 6HR MAX TEMP:  58; 6HR PCP:  0.06;                
GRAND RAPIDS   CLOUDY    56  55  97 NW5       29.96F                  
6HR MIN TEMP:  56; 6HR MAX TEMP:  65; 6HR PCP: TRACE;                
IONIA          CLOUDY    62  60  96 CALM      29.95S                  
6HR MIN TEMP:  62; 6HR MAX TEMP:  70;                                
KALAMAZOO      LGT RAIN  62  58  86 NW3       29.96F                  
6HR MIN TEMP:  62; 6HR MAX TEMP:  69; 6HR PCP: TRACE;                
LUDINGTON      RAIN      51  50  97 CALM      29.99F                  
6HR MIN TEMP:  51; 6HR MAX TEMP:  51; 6HR PCP:  0.14;                
MARSHALL       CLOUDY    66  53  62 CALM      29.96F                  
6HR MIN TEMP:  66; 6HR MAX TEMP:  71;                                
MOUNT PLEASANT CLOUDY    58  54  88 W3        29.96S                  
6HR MIN TEMP:  58; 6HR MAX TEMP:  69; 6HR PCP:  0.01;                
MUSKEGON       RAIN      53  52  96 N6        29.98F FOG              
6HR MIN TEMP:  53; 6HR MAX TEMP:  54; 6HR PCP:  0.45;                
SOUTH HAVEN    DRIZZLE   56  55  95 CALM      29.96F                  
$$
MIZ016>042-230700-
NORTHERN LOWER MICHIGAN
  
CITY           SKY/WX    TMP DP  RH WIND       PRES   REMARKS
ALPENA         LGT RAIN  53  53 100 CALM      29.97F FOG              
6HR MIN TEMP:  53; 6HR MAX TEMP:  65; 6HR PCP:  0.08;                
BEAVER ISLAND  DRIZZLE   51  51 100 CALM      29.98F                  
6HR MIN TEMP:  51; 6HR MAX TEMP:  52;                                
BELLAIRE       RAIN      51  49  93 CALM      29.99R                  
6HR MIN TEMP:  51; 6HR MAX TEMP:  52;                                
CADILLAC       RAIN      54  51  89 CALM      29.97F                  
CHARLEVOIX     RAIN      51  51 100 CALM      30.02R                  
FRANKFORT      RAIN      52  52 100 CALM      29.98F                  
GAYLORD        RAIN      50  48  93 NW3       29.97F FOG              
6HR MIN TEMP:  50; 6HR MAX TEMP:  52; 6HR PCP:  0.32;                
GRAYLING       RAIN      52  50  93 NW3       29.98S                  
6HR MIN TEMP:  51; 6HR MAX TEMP:  55;                                
HARBOR SPRINGS HVY RAIN  50  48  95 CALM      29.98F                  
HOUGHTON LAKE  LGT RAIN  52  51  97 CALM      29.97F FOG              
6HR MIN TEMP:  52; 6HR MAX TEMP:  60; 6HR PCP:  0.15;                
MANISTEE       LGT RAIN  51  50  96 CALM      29.98F                  
OSCODA         CLOUDY    60  55  83 N6        29.95S                  
6HR MIN TEMP:  60; 6HR MAX TEMP:  71;                                
PELLSTON       LGT RAIN  50  49  96 NW3       29.99F                  
6HR MIN TEMP:  50; 6HR MAX TEMP:  53; 6HR PCP:  0.27;                
ROGERS CITY    DRIZZLE   52  51  97 NW3       29.98F                  
TRAVERSE CITY  RAIN      53  51  93 CALM      29.98R FOG              
6HR MIN TEMP:  53; 6HR MAX TEMP:  54; 6HR PCP:  0.27;                
$$
MIZ007>008-015-230700-
EASTERN UPPER MICHIGAN
  
CITY           SKY/WX    TMP DP  RH WIND       PRES   REMARKS
KINROSS        LGT RAIN  49  49 100 W6        29.98S                  
6HR MIN TEMP:  49; 6HR MAX TEMP:  50;                                
MACKINAC ISLAN LGT RAIN  50  50 100 NW3       29.98F                  
6HR MIN TEMP:  50; 6HR MAX TEMP:  53; 6HR PCP:  0.28;                
NEWBERRY       CLOUDY    46  46  97 SE3       29.97S                  
6HR MIN TEMP:  46; 6HR MAX TEMP:  48; 6HR PCP:  0.08;                
S. S. MARIE    LGT RAIN  52  50  93 W6        29.97S                  
6HR MIN TEMP:  51; 6HR MAX TEMP:  52; 6HR PCP:  0.26;                
MUNISING         N/A     45  45 100 S7        29.95F                  
6HR MIN TEMP:  44; 6HR MAX TEMP:  50;                                
$$
MIZ004>006-011>014-085-230700-
CENTRAL UPPER MICHIGAN
  
CITY           SKY/WX    TMP DP  RH WIND       PRES   REMARKS
MANISTIQUE     CLOUDY    47  42  81 CALM      29.98S                  
6HR MIN TEMP:  47; 6HR MAX TEMP:  49; 6HR PCP:  0.06;                
ESCANABA       PTCLDY    42  42 100 W6        29.97F FOG              
6HR MIN TEMP:  42; 6HR MAX TEMP:  51; 6HR PCP:  0.01;                
MENOMINEE      CLOUDY    45  44  97 CALM      29.99F FOG              
6HR MIN TEMP:  44; 6HR MAX TEMP:  50; 6HR PCP:  0.01;                
SAWYER-GWINN   CLOUDY    42  42  98 SW5       29.96S                  
6HR MIN TEMP:  42; 6HR MAX TEMP:  47;                                
$$
MIZ001>003-009>011-084-230700-
WESTERN UPPER MICHIGAN
  
CITY           SKY/WX    TMP DP  RH WIND       PRES   REMARKS
IRON MOUNTAIN  MOCLDY    40  38  93 CALM      29.95F FOG              
6HR MIN TEMP:  40; 6HR MAX TEMP:  48;                                
HOUGHTON       CLEAR     44  38  79 S6        29.89F                  
6HR MIN TEMP:  43; 6HR MAX TEMP:  49;                                
COPPER HARBOR    N/A     47  39  74 SW10G17   29.89F                  
6HR MIN TEMP:  46; 6HR MAX TEMP:  51;                                
IRONWOOD       MOCLDY    45  38  76 S10G16    29.89F                  
6HR MIN TEMP:  44; 6HR MAX TEMP:  49;                                
$$
ABBREVIATIONS USED IN REMARKS
   TC - TEMPERATURE IN CELSIUS
  WCI - WIND CHILL INDEX
   HX - HEAT INDEX
  VSB - VISIBILITY